This is the latest recevied weather packets stored in our database for station/object WZ9ZZZ-1. If no packets are shown the sender has not sent any weather packets the latest 10 day(s).
| Time | Temp. | Humidity | Pressure | Rain* | Wind** | Luminosity | Snow |
|---|---|---|---|---|---|---|---|
| 1777917947 | 26.67° C | 62% | 1018.5 hPa | 0 mm | - | 887 W/m² | - |
| 1777917646 | 26.11° C | 63% | 1018.3 hPa | 0 mm | - | 888 W/m² | - |
| 1777917343 | 26.11° C | 66% | 1018.3 hPa | 0 mm | - | 896 W/m² | - |
| 1777917040 | 26.11° C | 63% | 1018.2 hPa | 0 mm | - | 250 W/m² | - |
| 1777916738 | 25.56° C | 63% | 1018.6 hPa | 0 mm | - | 897 W/m² | - |
| 1777916434 | 26.67° C | 62% | 1018.5 hPa | 0 mm | - | 238 W/m² | - |
| 1777916131 | 26.67° C | 63% | 1018.9 hPa | 0 mm | - | 870 W/m² | - |
| 1777915828 | 26.11° C | 64% | 1018.7 hPa | 0 mm | - | 822 W/m² | - |
| 1777915524 | 26.11° C | 62% | 1018.7 hPa | 0 mm | - | 715 W/m² | - |
| 1777915221 | 26.11° C | 63% | 1018.8 hPa | 0 mm | - | 661 W/m² | - |
| 1777914918 | 26.11° C | 64% | 1018.9 hPa | 0 mm | - | 658 W/m² | - |
| 1777914615 | 25.56° C | 65% | 1019.1 hPa | 0 mm | - | 764 W/m² | - |
| 1777914310 | 25.56° C | 64% | 1019.2 hPa | 0 mm | - | 195 W/m² | - |
| 1777914009 | 25.56° C | 66% | 1019.1 hPa | 0 mm | - | 461 W/m² | - |
| 1777913704 | 25° C | 65% | 1019.1 hPa | 0 mm | - | 811 W/m² | - |
| 1777913401 | 25.56° C | 65% | 1019.2 hPa | 0 mm | - | 739 W/m² | - |
| 1777913098 | 25.56° C | 63% | 1019.2 hPa | 0 mm | - | 717 W/m² | - |
| 1777912794 | 25.56° C | 62% | 1019.2 hPa | 0 mm | - | 293 W/m² | - |
| 1777912490 | 26.11° C | 62% | 1019.5 hPa | 0 mm | - | 192 W/m² | - |
| 1777912187 | 25.56° C | 62% | 1019.4 hPa | 0 mm | - | 751 W/m² | - |
| 1777911883 | 25.56° C | 61% | 1019.3 hPa | 0 mm | - | 747 W/m² | - |
| 1777911580 | 25.56° C | 62% | 1019.6 hPa | 0 mm | - | 693 W/m² | - |
| 1777911275 | 26.11° C | 62% | 1019.6 hPa | 0 mm | - | 714 W/m² | - |
| 1777910973 | 25° C | 61% | 1019.5 hPa | 0 mm | - | 684 W/m² | - |
| 1777910671 | 25° C | 66% | 1019.4 hPa | 0 mm | - | 650 W/m² | - |
* Rain latest hour (hover to see other rain measurements)
** Current wind speed in m/s (hover to see current wind gust speed)